www.pogodaiklimat.ru

Погода и климат >> Архив погоды >> Молдова >> Кишинев


АРХИВ ПОГОДЫ в Кишиневе

Время (UTC), дата Ветер
(напр.,м/с)
 
Видим.   Явления Облачность Т
(С)
Тd
(С)
f
(%)
Тe
(С)
Тes
(С)
Комфортность P
(гПа)
Po
(гПа)
Тmin
(С)
Tmax
(С)
R
(мм)
R24
(мм)
S
(см)
21 12.08 штиль 0 20 км ясно +26.2 +7.3 30 +26 +26 жарко 1008.4 989.1
00 13.08 С 3 20 км ясно +23.7 +7.3 35 +24 +24 комфорт 1007.9 988.5
03 13.08 С 1 20 км 3/0
[Ci fib]
+20.6 +8.6 46 +23 +23 комфорт 1008.1 988.5
06 13.08 СВ 2 20 км 4/1 600 м
[Cu hum Ci fib]
+23.1 +10.5 45 +25 +30 комфорт 1008.3 988.9 +20.0
09 13.08 СВ 3 20 км 5/0
[Ac trans]
+30.3 +7.5 24 +29 +38 жарко 1007.7 988.7
12 13.08 В 3 20 км ясно +33.2 +2.1 14 +30 +41 жарко 1006.8 988.0
15 13.08 С 2 20 км 8/8 600 м
[Cu med, cong Ac trans]
+32.4 +4.2 17 +30 +31 жарко 1006.0 987.2
18 13.08 СЗ 3 20 км 10/8 600 м
[Cu med, cong Ac trans]
+30.0 +3.9 19 +28 +28 жарко 1006.6 987.6 +34.5
21 13.08 С 6
{13}
20 км 10/9 600 м
[Cu med, cong Ac trans]
+24.9 +15.2 55 +28 +28 жарко 1007.9 988.6
00 14.08 С 5
{13}
10 км сильный ливневой дождь 10/10 600 м
[Cb calv]
+19.7 +17.8 89 +22 +22 комфорт 1008.6 989.0
03 14.08 С 7 20 км в посл. час гроза {ливн. осадки} 10/5 600 м
[Cb calv Ac trans]
+18.9 +16.0 83 +20 +20 по сезону 1009.9 990.2
06 14.08 СЗ 7
{14}
20 км {гроза, ливн. осадки} 10/8 600 м
[Cb calv Ac trans]
+19.6 +16.6 83 +21 +21 комфорт 1009.9 990.2 +18.5 9
09 14.08 С 9
{15}
20 км в посл. час гроза {ливн. осадки} 10/6 600 м
[Cb calv Ac trans]
+18.8 +14.9 78 +19 +19 холодно 1011.7 991.9
12 14.08 СЗ 8
{15}
20 км слабый ливневой дождь {гроза} 9/8 600 м
[Cb calv Ac trans]
+19.3 +15.0 76 +20 +20 очень
холодно
1013.5 993.7
15 14.08 С 6
{14}
20 км {ливн. осадки} 10/5 600 м
[Sc Ac trans]
+20.3 +15.5 74 +23 +23 комфорт 1013.4 993.7
18 14.08 СЗ 7
{13}
20 км гроза без осадков {ливн. осадки} 10/10 600 м
[Cb calv]
+20.7 +16.3 76 +24 +24 комфорт 1014.1 994.4 +21.0 0.6
21 14.08 С 6
{13}
20 км {гроза} 10/8 600 м
[Sc Ac trans]
+21.1 +15.2 69 +24 +24 комфорт 1014.6 994.9
00 15.08 С 6 10 км {гроза} 10/4 600 м
[Sc Ac trans Ci fib]
+20.1 +14.5 70 +22 +22 комфорт 1014.3 994.6
03 15.08 С 6 20 км 10/5 600 м
[Sc Ac trans]
+18.8 +12.8 68 +19 +19 по сезону 1015.3 995.5
06 15.08 С 7 20 км 10/8 600 м
[Cb cap Ac trans]
+18.2 +12.4 69 +18 +18 прохладно 1016.1 996.2 +18.3
09 15.08 СЗ 6 20 км 9/4 600 м
[Cu med, cong Ac trans Ci fib]
+21.9 +14.5 63 +25 +27 комфорт 1017.2 997.5
12 15.08 С 5 20 км 8/3 600 м
[Cu med, cong Ac trans Ci fib]
+27.2 +15.6 49 +30 +33 душно 1016.0 996.7
15 15.08 СЗ 4 20 км 8/4 600 м
[Cu med, cong Ac trans Ci fib]
+26.8 +16.7 54 +30 +31 душно 1016.0 996.7
18 15.08 С 4 20 км 8/4 600 м
[Cb calv Ac trans Ci fib]
+24.7 +15.9 58 +28 +28 душно 1017.0 997.5 +27.8
21 15.08 СЗ 3 20 км 8/0
[Ac trans Ci fib]
+23.2 +16.0 64 +28 +28 душно 1017.1 997.5
00 16.08 С 5 20 км 5/0
[Ac trans Ci fib]
+22.2 +16.7 71 +27 +27 душно 1016.4 996.8
03 16.08 С 4 20 км 5/0
[Ac trans Ci fib]
+21.0 +16.2 74 +25 +25 комфорт 1016.7 997.0
06 16.08 СЗ 2 20 км 4/3 600 м
[Cu med, cong Ac trans Ci fib]
+22.7 +16.5 68 +27 +31 душно 1017.1 997.5 +20.6
09 16.08 С 4 20 км 3/0
[Ci fib]
+27.8 +15.8 48 +31 +40 душно 1016.8 997.5
12 16.08 В 3 20 км 8/8 600 м
[Cu med, cong]
+31.0 +7.5 23 +30 +32 жарко 1015.6 996.5
15 16.08 В 2 20 км 3/1 600 м
[Cu hum Ci fib]
+31.1 +6.9 22 +30 +32 жарко 1014.8 995.7
18 16.08 С 1 20 км 6/3 600 м
[Cb calv Ac trans Ci fib]
+28.1 +7.4 27 +27 +27 жарко 1015.8 996.5 +31.9
21 16.08 С 2 20 км 5/0
[Ac trans]
+24.6 +9.7 39 +25 +25 комфорт 1016.5 997.0
00 17.08 СВ 2 20 км 3/0
[Ac trans Ci fib]
+23.2 +11.9 49 +26 +26 жарко 1015.9 996.3
03 17.08 С 4 20 км 4/0
[Ac trans Ci fib]
+21.7 +12.5 56 +24 +24 комфорт 1015.9 996.2
06 17.08 С 3 20 км 8/5 600 м
[Sc Ac trans]
+21.8 +13.7 60 +25 +26 комфорт 1016.7 997.0 +21.1
09 17.08 С 3 20 км 9/4 600 м
[Sc Ac As Ci fib]
+26.7 +14.8 48 +29 +33 жарко 1016.4 997.1
12 17.08 С 2 20 км 10/4 600 м
[Cu med, cong Ci sp]
+31.0 +10.9 29 +31 +37 жарко 1015.5 996.4
15 17.08 штиль 0 20 км {гроза, ливн. осадки} 9/3 600 м
[Cu hum Ac trans Ci fib]
+30.6 +10.0 28 +30 +32 жарко 1014.7 995.6
18 17.08 С 2 20 км {гроза, ливн. осадки} 9/0
[Ac trans Ci fib]
+27.9 +9.2 31 +28 +28 жарко 1015.7 996.4 +31.6 0.1
21 17.08 С 2 20 км 8/0
[Ac trans Ci fib]
+24.6 +10.1 40 +26 +26 жарко 1016.0 996.5
00 18.08 С 2 20 км ясно +22.9 +8.6 40 +24 +24 комфорт 1016.1 996.5
03 18.08 С 2 20 км 1/0
[Ac trans]
+21.7 +8.6 43 +23 +23 комфорт 1016.4 996.7
06 18.08 С 4 20 км ясно +23.1 +9.1 41 +25 +28 комфорт 1017.1 997.5 +21.2
09 18.08 С 3 20 км ясно +29.3 +10.0 30 +29 +41 жарко 1017.1 997.9
12 18.08 С 3 20 км 4/4 600 м
[Cu med, cong]
+31.8 +4.6 18 +30 +36 жарко 1016.1 997.0
15 18.08 С 2 20 км 1/1 600 м
[Cu hum]
+31.9 +4.7 18 +30 +32 жарко 1015.2 996.2
18 18.08 С 3 20 км 5/0
[Ac trans Ci fib]
+28.2 +6.3 25 +27 +27 жарко 1015.7 996.4 +32.8
21 18.08 С 4 20 км 6/0
[Ac trans]
+26.1 +7.2 30 +26 +26 жарко 1015.8 996.4
00 19.08 С 2 20 км 5/0
[Ac trans]
+23.3 +7.4 36 +24 +24 комфорт 1015.8 996.2
03 19.08 С 2 20 км ясно +21.0 +9.0 46 +23 +23 комфорт 1016.4 996.7
06 19.08 С 2 20 км ясно +22.8 +10.3 45 +25 +30 комфорт 1017.4 997.8 +19.6
09 19.08 В 2 20 км 3/0
[Ci fib]
+29.4 +10.0 30 +29 +43 жарко 1016.9 997.7
12 19.08 В 3 20 км 3/3 600 м
[Cu hum Ci fib]
+33.2 +3.1 15 +30 +37 жарко 1015.7 996.7
15 19.08 ЮВ 2 20 км 3/3 600 м
[Cu hum]
+32.7 +0.7 13 +30 +31 жарко 1015.2 996.2

 

Местоположение метеостанции Кишинев (Молдова): широта 47.02 долгота 28.98 высота над уровнем моря 173 м.

В архиве по умолчанию представлена погода в Кишиневе за последнюю неделю. Архивные данные за месяц целиком и за предыдущие месяцы, начиная с января 2011 года, Вы можете получить, выбрав интересующий диапазон дат из раскрывающегося списка и нажав кнопку "Ввод!".

Внимание! Время в таблицах - всемирное. Для получения местного времени необходимо прибавить поправку, которая в Кишиневе равна 2 ч.

Смотрите также архив погоды в соседних городах и на ближайших метеорологических станциях:

Погода в Дубоссарах (Молдова) (29 км)
Погода в Тирасполе (Молдова) (49 км)
Погода в Бравичах (Молдова) (57 км)
Погода в Штефан Водэ (Молдова) (67 км)
Погода в Корнестах (Молдова) (76 км)
Погода в Затишье (Одесская область, Украина) (76 км)
Погода в Леове (Молдова) (80 км)
Погода в Заставе (Одесская область, Украина) (81 км)
Погода в Рыбнице (Молдова) (83 км)
Погода в Комрате (Молдова) (84 км)

Пояснения к столбцам:

Ветер - указаны скорость ветра в м/с - средняя за 10 мин, порывы в срок и между сроками (в фигурных скобках) и направление, откуда дует ветер: С - северный, СВ - северо-восточный, В - восточный, ЮВ - юго-восточный, Ю - южный, ЮЗ - юго-западный, З - западный, СЗ - северо-западный.
Видимость - горизонтальная дальность видимости в метрах или километрах. При видимости от 1 до 10 км при отсутствии осадков обычно наблюдается дымка, при ухудшении видимости до 1 км и менее - туман. В сухую погоду видимость может ухудшаться дымом, пылью или мглою.
Явления - указаны атмосферные явления, наблюдавшиеся в срок или в последний час перед сроком; фигурными скобками обозначены явления, наблюдавшиеся между сроками (за 1-3 часа до срока); квадратными скобками обозначены град или гололедные отложения с указанием их диаметра в мм.
Облачность - указаны через наклонную черту общая и нижняя облачность в баллах и высота нижней границы облаков в метрах; квадратными скобками обозначены формы облаков: Ci - перистые, Cs - перисто-слоистые, Cc - перисто-кучевые, Ac - высококучевые, As - высокослоистые, Sc - слоисто-кучевые, Ns - слоисто-дождевые, Cu - кучевые, Cb - кучево-дождевые. Подробнее классификацию облаков см. в Атласе облаков (PDF).
T - Температура воздуха - температура, измеренная на высоте 2 м над землей.
Td - Температура точки росы - температура, при понижении до которой содержащийся в воздухе водяной пар достигнет насыщения.
f - Относительная влажность воздуха - влажноcть воздуха, измеренная на высоте 2 м над землей.
Te - Эффективная температура - температура, которую ощущает одетый по сезону человек в тени. Характеристика душности погоды. При расчете учитывается влияние влажности воздуха и скорости ветра на теплоощущения человека.
Tes - Эффективная температура на солнце - температура, которую ощущает человек, с поправкой на солнечный нагрев. Характеристика знойности погоды. Зависит от высоты солнца над горизонтом, облачности и скорости ветра. Ночью, в пасмурную погоду, а также при ветре 12 м/с и более поправка равна нулю.
P - Атмосферное давление - приведенное к уровню моря атмосферное давление.
Po - Атмосферное давление - измеренное на уровне метеостанции атмосферное давление.
Tmin - Минимальная температура - минимум температуры воздуха на высоте 2 м над землей.
Tmax - Максимальная температура - максимум температуры воздуха на высоте 2 м над землей.
R - Количество осадков - Количество выпавших осадков за период времени, мм. При наведении курсора мыши на число - период времени, за который выпало указанное количество осадков.
R24 - Количество осадков - Количество выпавших осадков за 24 часа, мм.
S - Снежный покров - Высота снежного покрова, см. При наведении курсора мыши на число - состояние снежного покрова и степень покрытия местности в баллах.